DW6352 Weather Reports


time (UTC)temp
C
wind
direction
speed
KPH
gust
KPH
rain 1hr
cm
rain 24hr
cm
rain mn
cm
humidity
%
barometer
mb
20260905140122 18 70 3.2 9.7 0.00 0.00 0.00 93 1016.4
20260905134505 17 68 3.2 8.0 0.00 0.00 0.00 94 1016.2
20260905133012 17 76 4.8 9.7 0.00 0.00 0.00 93 1015.9
20260905131508 17 65 4.8 9.7 0.00 0.00 0.00 94 1015.5
20260905130007 17 60 3.2 9.7 0.00 0.00 0.00 94 1015.0
20260905124521 17 59 6.4 14.5 0.00 0.00 0.00 94 1015.0
20260905123127 17 13 6.4 14.5 0.00 0.00 0.00 94 1014.9
20260905121627 16 24 4.8 9.7 0.00 0.00 0.00 94 1015.0
20260905120006 16 27 3.2 8.0 0.00 0.00 0.00 94 1015.2
20260905114628 16 40 1.6 8.0 0.00 0.00 0.00 93 1015.1
20260905113125 16 34 3.2 9.7 0.00 0.00 0.00 93 1015.0
20260905111516 16 42 0.0 6.4 0.00 0.00 0.00 93 1014.9
20260905110013 16 44 1.6 6.4 0.00 0.00 0.00 93 1014.8
20260905104517 16 13 3.2 6.4 0.00 0.00 0.00 93 1014.7
20260905103010 16 58 4.8 16.1 0.00 0.00 0.00 93 1014.2
20260905101505 16 53 9.7 19.3 0.00 0.00 0.00 93 1014.0
20260905100009 16 43 4.8 17.7 0.00 0.00 0.00 93 1013.7
20260905094516 16 49 4.8 16.1 0.00 0.00 0.00 93 1013.5
20260905093010 16 84 8.0 20.9 0.00 0.00 0.00 93 1013.6
20260905091503 16 71 6.4 17.7 0.00 0.00 0.00 93 1013.9
20260905090005 16 65 6.4 14.5 0.00 0.00 0.00 93 1014.3
20260905084507 16 44 8.0 14.5 0.00 0.00 0.00 93 1014.4
20260905083013 16 44 6.4 16.1 0.00 0.00 0.00 93 1014.4
20260905081508 16 45 6.4 16.1 0.00 0.00 0.00 92 1014.5
20260905080005 16 49 4.8 12.9 0.00 0.00 0.00 92 1014.7
20260905074509 16 67 6.4 14.5 0.00 0.00 0.00 92 1014.6
20260905073015 17 34 6.4 12.9 0.00 0.00 0.00 92 1014.5
20260905071509 16 59 3.2 14.5 0.00 0.00 0.00 92 1014.5
20260905070006 17 57 6.4 14.5 0.00 0.00 0.00 92 1014.4
20260905064630 17 51 4.8 14.5 0.00 0.00 0.00 91 1014.4
20260905063005 17 40 3.2 12.9 0.00 0.00 0.00 91 1014.4
20260905061514 17 355 6.4 14.5 0.00 0.00 0.00 91 1014.2
20260905060012 17 336 6.4 14.5 0.00 0.00 0.00 91 1014.3
20260905054515 17 30 8.0 17.7 0.00 0.00 0.00 90 1014.2
20260905053012 17 57 8.0 17.7 0.00 0.00 0.00 90 1014.3
20260905051520 17 329 8.0 16.1 0.00 0.00 0.00 90 1014.2
20260905050128 17 85 4.8 11.3 0.00 0.00 0.00 90 1014.1
20260905044509 17 29 6.4 14.5 0.00 0.00 0.00 90 1014.0
20260905043014 17 32 4.8 17.7 0.00 0.00 0.00 90 1014.0
20260905041506 17 55 8.0 16.1 0.00 0.00 0.00 90 1014.1
20260905040141 17 40 4.8 16.1 0.00 0.00 0.00 90 1014.2
20260905034510 17 50 8.0 20.9 0.00 0.00 0.00 89 1014.1
20260905033011 17 55 6.4 20.9 0.00 0.00 0.00 89 1014.0
20260905031633 17 67 8.0 19.3 0.00 0.00 0.00 89 1014.1
20260905030008 17 25 8.0 19.3 0.00 0.00 0.00 88 1014.0
20260905024502 17 36 11.3 19.3 0.00 0.00 0.00 88 1013.8
20260905023126 18 71 4.8 16.1 0.00 0.00 0.00 87 1013.6
20260905021514 18 55 4.8 16.1 0.00 0.00 0.00 87 1013.5
20260905020010 18 23 8.0 14.5 0.00 0.00 0.00 86 1013.3
20260905014625 18 52 6.4 17.7 0.00 0.00 0.00 85 1013.3
20260905013015 19 15 6.4 20.9 0.00 0.00 0.00 84 1013.2
20260905011513 20 333 9.7 16.1 0.00 0.00 0.00 83 1013.1
20260905010009 20 49 8.0 17.7 0.00 0.00 0.00 82 1012.8
20260905004513 20 320 8.0 20.9 0.00 0.00 0.00 80 1012.6
20260905003020 21 5 9.7 20.9 0.00 0.00 0.00 78 1012.6
20260905001513 22 24 9.7 19.3 0.00 0.00 0.00 76 1012.4
20260905000007 22 16 11.3 19.3 0.00 0.00 0.00 74 1012.2
20260904234627 23 31 8.0 20.9 0.00 0.00 0.00 72 1012.2
20260904233011 24 46 9.7 19.3 0.00 0.00 0.00 70 1012.1
20260904231503 25 9 14.5 20.9 0.00 0.00 0.00 69 1011.9
20260904230030 25 39 11.3 19.3 0.00 0.00 0.00 68 1011.8
20260904224509 26 11 6.4 19.3 0.00 0.05 0.00 66 1011.7
20260904223127 26 30 6.4 20.9 0.00 0.05 0.00 66 1011.5
20260904221507 26 355 6.4 17.7 0.00 0.05 0.00 65 1011.3
20260904220014 27 44 8.0 16.1 0.00 0.05 0.00 64 1011.1
20260904214631 27 60 8.0 19.3 0.00 0.05 0.00 65 1011.0
20260904213009 27 49 6.4 19.3 0.00 0.05 0.00 63 1011.1
20260904211510 27 12 4.8 16.1 0.00 0.05 0.00 64 1011.1
20260904210005 27 13 8.0 19.3 0.00 0.05 0.00 64 1011.1
20260904204511 27 40 8.0 16.1 0.00 0.05 0.00 64 1011.0
20260904203014 26 26 8.0 19.3 0.00 0.05 0.00 65 1011.1
20260904201506 26 325 6.4 19.3 0.00 0.05 0.00 65 1011.0
20260904200126 26 281 8.0 17.7 0.00 0.05 0.00 66 1011.0
20260904194500 26 26 3.2 19.3 0.00 0.05 0.00 66 1011.0
20260904193006 26 125 3.2 14.5 0.00 0.05 0.00 66 1010.8
20260904191627 26 25 3.2 14.5 0.00 0.05 0.00 69 1010.9
20260904190012 25 34 6.4 16.1 0.00 0.05 0.00 70 1011.0
20260904184509 25 30 4.8 16.1 0.00 0.05 0.00 71 1011.0
20260904183014 25 25 6.4 17.7 0.00 0.05 0.00 71 1011.0
20260904181520 24 19 3.2 9.7 0.00 0.05 0.00 75 1011.0
20260904180021 23 29 6.4 14.5 0.00 0.05 0.00 75 1011.1
20260904174511 22 76 4.8 11.3 0.00 0.05 0.00 78 1011.2
20260904173016 21 330 6.4 16.1 0.00 0.05 0.00 80 1011.4
20260904171513 20 332 8.0 16.1 0.00 0.05 0.00 83 1011.5
20260904170018 20 11 8.0 16.1 0.00 0.05 0.00 84 1011.5
20260904164624 20 46 3.2 16.1 0.00 0.05 0.00 85 1011.4
20260904163128 20 355 6.4 16.1 0.00 0.05 0.00 85 1011.1
20260904161518 20 327 8.0 19.3 0.00 0.05 0.00 85 1011.0
20260904160127 20 20 9.7 17.7 0.00 0.05 0.00 85 1010.9
20260904154510 20 39 8.0 14.5 0.00 0.05 0.00 85 1010.6
20260904153132 20 55 8.0 16.1 0.00 0.05 0.00 85 1010.5
20260904151513 20 16 6.4 16.1 0.00 0.05 0.00 86 1010.2
20260904150016 20 51 9.7 19.3 0.00 0.05 0.00 86 1010.0
20260904144512 20 333 4.8 14.5 0.00 0.05 0.00 87 1009.9
20260904143010 20 5 6.4 19.3 0.00 0.05 0.00 89 1010.0
20260904141508 21 32 6.4 16.1 0.00 0.05 0.00 90 1009.7